QPF
0.00 0.00 0.00 0.00 0.01 0.01 0.00 0.01 0.01 0.00 0.00 0.00 0.00 0.00 0.00 0.00 0.01 0.01 0.01 0.01 0.00 0.00 0.00 0.00 0.00 0.00 0.00 0.00 0.01 0.00 0.00 0.00 0.00 0.00 0.01 0.02 0.02 0.02 0.01 0.01 0.02 0.04 0.02
0.00 0.00 0.00 0.00 0.01 0.01 0.00 0.00 0.01 0.01 0.01 0.01 0.01 0.01 0.01 0.01 0.01 0.01 0.01 0.01 0.00 0.00 0.00 0.00 0.00 0.00 0.00 0.00 0.00 0.00 0.00 0.00 0.00 0.00 0.00 0.01 0.01 0.01 0.01 0.01 0.02 0.04 0.03
0.00 0.00 0.00 0.00 0.00 0.01 0.01 0.01 0.01 0.01 0.01 0.01 0.01 0.01 0.01 0.01 0.01 0.01 0.01 0.00 0.00 0.00 0.00 0.00 0.00 0.00 0.00 0.00 0.00 0.00 0.00 0.00 0.00 0.00 0.00 0.00 0.00 0.00 0.00 0.00 0.01 0.01 0.02
0.00 0.00 0.00 0.00 0.00 0.01 0.01 0.01 0.01 0.01 0.01 0.01 0.00 0.00 0.01 0.01 0.00 0.01 0.00 0.00 0.00 0.00 0.00 0.00 0.00 0.00 0.00 0.00 0.00 0.00 0.00 0.00 0.00 0.00 0.00 0.00 0.01 0.01 0.00 0.00 0.00 0.00 0.00
0.00 0.00 0.00 0.00 0.00 0.00 0.01 0.01 0.01 0.01 0.01 0.00 0.00 0.00 0.00 0.00 0.00 0.00 0.00 0.00 0.00 0.00 0.00 0.00 0.00 0.00 0.00 0.00 0.00 0.00 0.00 0.00 0.00 0.00 0.00 0.00 0.01 0.01 0.00 0.00 0.00 0.00 0.00
0.00 0.00 0.00 0.00 0.00 0.01 0.01 0.01 0.01 0.02 0.01 0.00 0.00 0.00 0.00 0.00 0.00 0.00 0.00 0.00 0.00 0.00 0.00 0.00 0.00 0.00 0.00 0.00 0.00 0.00 0.00 0.00 0.00 0.00 0.00 0.00 0.01 0.01 0.00 0.00 0.00 0.00 0.00
0.00 0.00 0.00 0.00 0.00 0.01 0.01 0.02 0.01 0.02 0.02 0.01 0.01 0.00 0.01 0.01 0.01 0.00 0.00 0.00 0.00 0.00 0.00 0.00 0.00 0.00 0.00 0.00 0.00 0.00 0.00 0.00 0.00 0.00 0.00 0.00 0.01 0.01 0.01 0.00 0.00 0.00 0.00
0.00 0.00 0.00 0.00 0.00 0.01 0.01 0.02 0.02 0.02 0.02 0.02 0.02 0.01 0.01 0.02 0.02 0.01 0.01 0.00 0.00 0.00 0.00 0.00 0.00 0.00 0.00 0.00 0.00 0.00 0.00 0.00 0.00 0.00 0.00 0.00 0.00 0.01 0.01 0.00 0.00 0.00 0.00
0.00 0.00 0.00 0.00 0.01 0.01 0.02 0.02 0.02 0.02 0.02 0.02 0.02 0.02 0.01 0.02 0.02 0.02 0.01 0.01 0.00 0.00 0.00 0.00 0.00 0.00 0.00 0.00 0.00 0.00 0.00 0.00 0.00 0.00 0.00 0.00 0.00 0.00 0.01 0.00 0.00 0.00 0.00
0.00 0.00 0.00 0.00 0.01 0.01 0.02 0.02 0.02 0.02 0.02 0.02 0.02 0.02 0.02 0.02 0.03 0.02 0.02 0.01 0.01 0.00 0.00 0.00 0.00 0.00 0.00 0.00 0.00 0.00 0.00 0.00 0.00 0.00 0.00 0.00 0.00 0.00 0.00 0.00 0.00 0.00 0.00
0.00 0.00 0.00 0.00 0.00 0.01 0.02 0.02 0.03 0.03 0.03 0.03 0.03 0.03 0.03 0.03 0.04 0.03 0.02 0.01 0.01 0.00 0.00 0.00 0.00 0.00 0.00 0.00 0.00 0.00 0.00 0.00 0.00 0.00 0.00 0.00 0.00 0.00 0.00 0.00 0.00 0.00 0.00
0.00 0.00 0.00 0.00 0.00 0.00 0.01 0.02 0.03 0.03 0.03 0.04 0.04 0.04 0.03 0.03 0.03 0.03 0.02 0.02 0.01 0.00 0.00 0.00 0.00 0.00 0.00 0.00 0.00 0.00 0.00 0.00 0.00 0.00 0.00 0.00 0.00 0.00 0.00 0.00 0.00 0.00 0.00
0.00 0.00 0.00 0.00 0.00 0.00 0.01 0.01 0.02 0.03 0.03 0.04 0.04 0.04 0.04 0.04 0.03 0.03 0.02 0.02 0.01 0.00 0.00 0.00 0.00 0.00 0.00 0.00 0.00 0.00 0.00 0.00 0.00 0.00 0.00 0.00 0.00 0.00 0.00 0.00 0.00 0.00 0.00
0.00 0.00 0.00 0.00 0.00 0.00 0.00 0.01 0.02 0.03 0.03 0.04 0.04 0.04 0.05 0.05 0.04 0.03 0.02 0.02 0.01 0.01 0.00 0.00 0.00 0.00 0.00 0.00 0.00 0.00 0.00 0.00 0.00 0.00 0.00 0.00 0.00 0.00 0.00 0.00 0.00 0.00 0.00
0.00 0.00 0.00 0.00 0.00 0.00 0.00 0.01 0.02 0.02 0.03 0.03 0.03 0.04 0.05 0.05 0.05 0.04 0.03 0.02 0.01 0.01 0.01 0.00 0.00 0.00 0.00 0.00 0.00 0.00 0.00 0.00 0.00 0.00 0.00 0.00 0.00 0.00 0.00 0.00 0.00 0.00 0.00
0.00 0.00 0.00 0.00 0.00 0.00 0.00 0.01 0.01 0.02 0.02 0.03 0.03 0.03 0.04 0.04 0.04 0.03 0.02 0.02 0.02 0.01 0.01 0.01 0.00 0.00 0.00 0.00 0.00 0.00 0.00 0.00 0.00 0.00 0.00 0.00 0.00 0.00 0.00 0.00 0.00 0.00 0.00
0.00 0.00 0.00 0.00 0.00 0.00 0.00 0.01 0.01 0.01 0.02 0.02 0.02 0.02 0.02 0.03 0.03 0.02 0.02 0.02 0.02 0.02 0.02 0.01 0.01 0.01 0.00 0.00 0.00 0.00 0.00 0.00 0.00 0.00 0.00 0.00 0.00 0.00 0.00 0.00 0.00 0.00 0.00
0.00 0.00 0.00 0.00 0.00 0.00 0.00 0.00 0.01 0.01 0.01 0.01 0.01 0.01 0.01 0.02 0.02 0.02 0.02 0.02 0.02 0.02 0.02 0.02 0.02 0.01 0.01 0.01 0.00 0.00 0.00 0.00 0.00 0.00 0.00 0.00 0.00 0.00 0.00 0.00 0.00 0.00 0.00
0.00 0.00 0.00 0.00 0.00 0.00 0.00 0.00 0.00 0.00 0.00 0.00 0.00 0.00 0.01 0.01 0.02 0.02 0.02 0.02 0.02 0.02 0.02 0.02 0.02 0.01 0.01 0.01 0.00 0.00 0.00 0.00 0.00 0.00 0.00 0.00 0.00 0.00 0.00 0.00 0.00 0.00 0.00
0.00 0.00 0.00 0.00 0.00 0.00 0.00 0.00 0.00 0.00 0.00 0.00 0.00 0.00 0.00 0.00 0.01 0.01 0.01 0.01 0.01 0.01 0.02 0.02 0.01 0.01 0.01 0.01 0.00 0.00 0.00 0.00 0.00 0.00 0.00 0.00 0.00 0.00 0.00 0.00 0.00 0.00 0.00
0.00 0.00 0.00 0.00 0.00 0.00 0.00 0.00 0.00 0.00 0.00 0.00 0.00 0.00 0.00 0.00 0.00 0.00 0.01 0.01 0.01 0.01 0.01 0.01 0.00 0.00 0.01 0.00 0.00 0.00 0.00 0.00 0.00 0.00 0.00 0.00 0.00 0.00 0.00 0.00 0.00 0.00 0.00
0.00 0.00 0.00 0.00 0.00 0.00 0.00 0.00 0.00 0.00 0.00 0.00 0.00 0.00 0.00 0.00 0.00 0.00 0.00 0.00 0.00 0.00 0.00 0.00 0.00 0.00 0.00 0.00 0.00 0.00 0.00 0.00 0.00 0.00 0.00 0.00 0.00 0.00 0.00 0.00 0.00 0.00 0.00
0.00 0.00 0.00 0.00 0.00 0.00 0.00 0.00 0.00 0.00 0.00 0.00 0.00 0.00 0.00 0.00 0.00 0.00 0.00 0.00 0.00 0.00 0.00 0.00 0.00 0.00 0.00 0.00 0.00 0.00 0.00 0.00 0.00 0.00 0.00 0.00 0.00 0.00 0.00 0.00 0.00 0.00 0.00
0.00 0.00 0.00 0.00 0.00 0.00 0.00 0.00 0.00 0.00 0.00 0.00 0.00 0.00 0.00 0.00 0.00 0.00 0.00 0.00 0.00 0.00 0.00 0.00 0.00 0.00 0.00 0.00 0.00 0.00 0.00 0.00 0.00 0.00 0.00 0.00 0.00 0.00 0.00 0.00 0.00 0.00 0.00
0.00 0.00 0.00 0.00 0.00 0.00 0.00 0.00 0.00 0.00 0.00 0.00 0.00 0.00 0.00 0.00 0.00 0.00 0.00 0.00 0.00 0.00 0.00 0.00 0.00 0.00 0.00 0.00 0.00 0.00 0.00 0.00 0.00 0.00 0.00 0.00 0.00 0.00 0.00 0.00 0.00 0.00 0.00
0.00 0.00 0.00 0.00 0.00 0.00 0.00 0.00 0.00 0.00 0.00 0.00 0.00 0.00 0.00 0.00 0.00 0.00 0.00 0.00 0.00 0.00 0.00 0.00 0.00 0.00 0.00 0.00 0.00 0.00 0.00 0.00 0.00 0.00 0.00 0.00 0.00 0.00 0.00 0.00 0.00 0.00 0.00
MSLP
1018.82 1018.86 1019.00 1019.22 1019.49 1019.78 1020.04 1020.24 1020.35 1020.38 1020.35 1020.29 1020.25 1020.26 1020.34 1020.48 1020.68 1020.89 1021.07 1021.20 1021.26 1021.26 1021.20 1021.12 1021.04 1020.98 1020.93 1020.89 1020.84 1020.77 1020.66 1020.52 1020.36 1020.20 1020.06 1019.96 1019.90 1019.87 1019.85 1019.81 1019.74 1019.62 1019.47
1018.79 1018.84 1018.99 1019.22 1019.51 1019.83 1020.12 1020.34 1020.48 1020.52 1020.50 1020.46 1020.43 1020.45 1020.54 1020.71 1020.93 1021.15 1021.35 1021.50 1021.57 1021.59 1021.56 1021.50 1021.45 1021.41 1021.39 1021.36 1021.30 1021.20 1021.06 1020.88 1020.68 1020.49 1020.34 1020.24 1020.19 1020.18 1020.18 1020.17 1020.11 1020.00 1019.83
1018.79 1018.83 1018.97 1019.20 1019.50 1019.83 1020.14 1020.40 1020.57 1020.66 1020.67 1020.66 1020.66 1020.70 1020.82 1020.99 1021.21 1021.44 1021.64 1021.78 1021.87 1021.89 1021.89 1021.86 1021.84 1021.83 1021.81 1021.78 1021.71 1021.59 1021.41 1021.19 1020.96 1020.74 1020.58 1020.49 1020.46 1020.47 1020.51 1020.52 1020.48 1020.38 1020.23
1018.83 1018.86 1018.98 1019.20 1019.50 1019.83 1020.17 1020.46 1020.68 1020.81 1020.87 1020.90 1020.94 1021.01 1021.13 1021.31 1021.51 1021.73 1021.91 1022.05 1022.14 1022.18 1022.19 1022.19 1022.19 1022.20 1022.20 1022.16 1022.08 1021.93 1021.72 1021.47 1021.21 1020.99 1020.82 1020.73 1020.72 1020.77 1020.82 1020.86 1020.85 1020.78 1020.64
1018.96 1018.98 1019.08 1019.27 1019.55 1019.89 1020.24 1020.55 1020.81 1020.98 1021.10 1021.17 1021.23 1021.32 1021.45 1021.61 1021.80 1021.99 1022.16 1022.29 1022.37 1022.42 1022.45 1022.48 1022.51 1022.53 1022.53 1022.49 1022.40 1022.23 1022.00 1021.73 1021.47 1021.24 1021.08 1021.01 1021.01 1021.07 1021.14 1021.21 1021.22 1021.16 1021.05
1019.19 1019.18 1019.25 1019.42 1019.68 1020.00 1020.35 1020.67 1020.95 1021.16 1021.30 1021.40 1021.49 1021.59 1021.71 1021.86 1022.03 1022.19 1022.34 1022.46 1022.55 1022.62 1022.67 1022.73 1022.77 1022.81 1022.82 1022.78 1022.68 1022.50 1022.27 1022.01 1021.74 1021.53 1021.38 1021.31 1021.32 1021.38 1021.46 1021.53 1021.55 1021.51 1021.42
1019.49 1019.46 1019.50 1019.64 1019.86 1020.15 1020.48 1020.79 1021.06 1021.28 1021.43 1021.55 1021.65 1021.75 1021.87 1022.01 1022.16 1022.31 1022.45 1022.57 1022.68 1022.77 1022.85 1022.93 1023.00 1023.06 1023.08 1023.04 1022.93 1022.76 1022.54 1022.29 1022.05 1021.85 1021.72 1021.66 1021.66 1021.71 1021.77 1021.82 1021.83 1021.80 1021.72
1019.85 1019.79 1019.79 1019.88 1020.06 1020.30 1020.58 1020.85 1021.10 1021.30 1021.45 1021.57 1021.67 1021.77 1021.89 1022.02 1022.17 1022.32 1022.47 1022.61 1022.73 1022.86 1022.97 1023.09 1023.19 1023.26 1023.29 1023.26 1023.17 1023.01 1022.81 1022.59 1022.38 1022.21 1022.09 1022.03 1022.02 1022.04 1022.06 1022.07 1022.05 1022.01 1021.93
1020.23 1020.13 1020.09 1020.12 1020.23 1020.41 1020.62 1020.84 1021.04 1021.20 1021.34 1021.45 1021.55 1021.66 1021.78 1021.92 1022.07 1022.24 1022.41 1022.58 1022.74 1022.91 1023.06 1023.21 1023.34 1023.43 1023.48 1023.46 1023.39 1023.26 1023.09 1022.91 1022.73 1022.59 1022.49 1022.42 1022.38 1022.36 1022.33 1022.28 1022.22 1022.14 1022.06
1020.61 1020.46 1020.36 1020.33 1020.37 1020.46 1020.59 1020.74 1020.88 1021.00 1021.11 1021.21 1021.32 1021.44 1021.58 1021.74 1021.92 1022.11 1022.31 1022.51 1022.72 1022.93 1023.13 1023.31 1023.47 1023.58 1023.64 1023.65 1023.59 1023.49 1023.36 1023.22 1023.09 1022.98 1022.89 1022.81 1022.74 1022.66 1022.57 1022.46 1022.34 1022.22 1022.12
1020.96 1020.76 1020.61 1020.51 1020.47 1020.48 1020.52 1020.59 1020.67 1020.75 1020.84 1020.94 1021.05 1021.19 1021.36 1021.54 1021.75 1021.97 1022.21 1022.45 1022.70 1022.95 1023.19 1023.41 1023.59 1023.72 1023.80 1023.81 1023.78 1023.71 1023.61 1023.51 1023.42 1023.34 1023.26 1023.18 1023.09 1022.96 1022.80 1022.62 1022.44 1022.27 1022.14
1021.31 1021.06 1020.85 1020.69 1020.57 1020.50 1020.46 1020.46 1020.48 1020.53 1020.60 1020.70 1020.84 1021.01 1021.19 1021.41 1021.64 1021.89 1022.15 1022.42 1022.70 1022.99 1023.25 1023.50 1023.70 1023.85 1023.93 1023.96 1023.94 1023.89 1023.82 1023.76 1023.70 1023.65 1023.60 1023.52 1023.40 1023.23 1023.02 1022.79 1022.55 1022.33 1022.17
1021.67 1021.38 1021.13 1020.91 1020.72 1020.58 1020.48 1020.41 1020.39 1020.42 1020.49 1020.61 1020.77 1020.96 1021.17 1021.40 1021.64 1021.90 1022.17 1022.46 1022.75 1023.05 1023.34 1023.60 1023.81 1023.97 1024.05 1024.08 1024.06 1024.02 1023.98 1023.94 1023.91 1023.89 1023.85 1023.78 1023.66 1023.48 1023.24 1022.96 1022.68 1022.42 1022.22
1022.05 1021.75 1021.46 1021.20 1020.97 1020.77 1020.62 1020.53 1020.49 1020.51 1020.60 1020.74 1020.92 1021.12 1021.34 1021.57 1021.80 1022.04 1022.30 1022.57 1022.86 1023.16 1023.45 1023.72 1023.93 1024.07 1024.15 1024.17 1024.14 1024.09 1024.05 1024.02 1024.01 1024.01 1024.01 1023.96 1023.85 1023.67 1023.43 1023.13 1022.82 1022.54 1022.31
1022.48 1022.18 1021.88 1021.59 1021.33 1021.11 1020.94 1020.83 1020.80 1020.84 1020.96 1021.12 1021.31 1021.52 1021.73 1021.93 1022.12 1022.32 1022.54 1022.78 1023.04 1023.32 1023.60 1023.85 1024.04 1024.17 1024.22 1024.21 1024.15 1024.08 1024.02 1023.99 1023.99 1024.01 1024.03 1024.02 1023.95 1023.80 1023.57 1023.28 1022.97 1022.66 1022.41
1022.97 1022.67 1022.37 1022.08 1021.81 1021.59 1021.42 1021.34 1021.34 1021.42 1021.57 1021.76 1021.97 1022.17 1022.34 1022.49 1022.62 1022.76 1022.90 1023.09 1023.30 1023.54 1023.79 1024.01 1024.17 1024.26 1024.27 1024.22 1024.11 1024.00 1023.91 1023.85 1023.85 1023.89 1023.94 1023.96 1023.94 1023.84 1023.65 1023.39 1023.09 1022.78 1022.50
1023.49 1023.21 1022.92 1022.63 1022.37 1022.17 1022.04 1022.00 1022.06 1022.20 1022.39 1022.62 1022.83 1023.01 1023.14 1023.23 1023.28 1023.33 1023.39 1023.50 1023.65 1023.84 1024.04 1024.22 1024.34 1024.38 1024.34 1024.22 1024.05 1023.88 1023.74 1023.65 1023.63 1023.67 1023.74 1023.81 1023.84 1023.80 1023.67 1023.46 1023.18 1022.88 1022.58
1024.03 1023.76 1023.48 1023.21 1022.97 1022.81 1022.73 1022.76 1022.89 1023.10 1023.36 1023.62 1023.84 1024.00 1024.08 1024.09 1024.06 1024.02 1024.00 1024.03 1024.11 1024.24 1024.39 1024.51 1024.58 1024.57 1024.46 1024.27 1024.03 1023.79 1023.58 1023.44 1023.39 1023.42 1023.51 1023.61 1023.69 1023.71 1023.64 1023.48 1023.24 1022.95 1022.64
1024.55 1024.30 1024.03 1023.77 1023.56 1023.45 1023.44 1023.55 1023.77 1024.06 1024.38 1024.69 1024.92 1025.06 1025.10 1025.05 1024.94 1024.82 1024.72 1024.68 1024.70 1024.77 1024.86 1024.94 1024.95 1024.87 1024.70 1024.43 1024.12 1023.80 1023.52 1023.32 1023.23 1023.23 1023.31 1023.43 1023.55 1023.61 1023.59 1023.48 1023.28 1023.01 1022.70
1025.05 1024.80 1024.53 1024.28 1024.11 1024.04 1024.11 1024.31 1024.62 1025.00 1025.39 1025.74 1026.00 1026.13 1026.15 1026.05 1025.89 1025.71 1025.56 1025.46 1025.43 1025.45 1025.50 1025.52 1025.48 1025.35 1025.11 1024.77 1024.39 1024.00 1023.65 1023.39 1023.23 1023.20 1023.25 1023.36 1023.48 1023.56 1023.58 1023.50 1023.33 1023.08 1022.77
1025.51 1025.26 1024.98 1024.75 1024.60 1024.59 1024.72 1025.00 1025.40 1025.86 1026.32 1026.72 1027.01 1027.15 1027.16 1027.06 1026.88 1026.67 1026.49 1026.36 1026.30 1026.29 1026.29 1026.27 1026.19 1026.01 1025.72 1025.33 1024.89 1024.44 1024.03 1023.71 1023.49 1023.39 1023.39 1023.46 1023.55 1023.61 1023.62 1023.56 1023.40 1023.17 1022.88
1025.93 1025.68 1025.41 1025.18 1025.06 1025.09 1025.28 1025.62 1026.09 1026.61 1027.13 1027.58 1027.90 1028.08 1028.11 1028.01 1027.85 1027.65 1027.47 1027.34 1027.27 1027.24 1027.23 1027.18 1027.07 1026.85 1026.53 1026.11 1025.64 1025.15 1024.69 1024.31 1024.02 1023.85 1023.77 1023.75 1023.77 1023.78 1023.75 1023.66 1023.50 1023.28 1023.00
1026.33 1026.09 1025.83 1025.61 1025.51 1025.57 1025.80 1026.18 1026.69 1027.25 1027.81 1028.29 1028.65 1028.86 1028.93 1028.88 1028.76 1028.60 1028.45 1028.35 1028.29 1028.26 1028.24 1028.18 1028.05 1027.82 1027.49 1027.07 1026.58 1026.08 1025.59 1025.17 1024.81 1024.55 1024.37 1024.24 1024.14 1024.05 1023.94 1023.79 1023.60 1023.37 1023.11
1026.72 1026.51 1026.27 1026.08 1026.00 1026.07 1026.31 1026.71 1027.23 1027.80 1028.37 1028.86 1029.25 1029.50 1029.62 1029.63 1029.57 1029.48 1029.38 1029.32 1029.29 1029.27 1029.25 1029.18 1029.05 1028.82 1028.50 1028.10 1027.63 1027.14 1026.65 1026.19 1025.78 1025.42 1025.12 1024.85 1024.61 1024.37 1024.14 1023.90 1023.66 1023.40 1023.14
1027.10 1026.95 1026.76 1026.60 1026.53 1026.61 1026.85 1027.24 1027.73 1028.28 1028.82 1029.31 1029.71 1029.99 1030.16 1030.24 1030.25 1030.23 1030.20 1030.18 1030.18 1030.17 1030.15 1030.09 1029.95 1029.74 1029.45 1029.09 1028.67 1028.21 1027.73 1027.26 1026.80 1026.35 1025.92 1025.50 1025.09 1024.70 1024.32 1023.96 1023.63 1023.33 1023.06
1027.45 1027.39 1027.27 1027.16 1027.13 1027.21 1027.43 1027.77 1028.22 1028.71 1029.21 1029.67 1030.05 1030.36 1030.57 1030.70 1030.78 1030.83 1030.86 1030.89 1030.91 1030.91 1030.89 1030.81 1030.69 1030.49 1030.24 1029.92 1029.56 1029.15 1028.72 1028.25 1027.75 1027.23 1026.68 1026.12 1025.54 1024.97 1024.43 1023.93 1023.50 1023.14 1022.84
Thickness
5716 5713 5708 5705 5703 5701 5700 5699 5698 5698 5698 5698 5698 5698 5698 5698 5698 5698 5697 5697 5698 5698 5698 5699 5699 5700 5700 5701 5702 5703 5704 5705 5706 5707 5708 5709 5710 5710 5711 5712 5713 5714 5713
5719 5714 5708 5706 5703 5701 5699 5698 5697 5696 5696 5696 5695 5695 5695 5694 5694 5694 5694 5694 5694 5694 5694 5695 5695 5695 5695 5696 5697 5698 5699 5699 5701 5702 5703 5704 5704 5705 5705 5706 5707 5708 5708
5717 5713 5709 5706 5704 5701 5699 5697 5696 5695 5694 5693 5693 5692 5692 5691 5691 5690 5690 5690 5690 5690 5690 5690 5690 5691 5691 5692 5693 5694 5694 5695 5696 5697 5700 5702 5700 5699 5700 5701 5702 5702 5704
5715 5713 5710 5706 5704 5701 5699 5697 5696 5695 5694 5692 5691 5691 5689 5689 5688 5687 5687 5687 5687 5687 5686 5686 5687 5687 5687 5688 5689 5690 5691 5691 5692 5694 5697 5697 5697 5694 5695 5695 5696 5697 5698
5714 5712 5709 5706 5703 5701 5699 5697 5695 5694 5693 5692 5691 5689 5688 5687 5686 5685 5684 5684 5683 5683 5683 5682 5682 5683 5684 5684 5686 5686 5687 5688 5689 5691 5692 5692 5692 5690 5690 5690 5691 5692 5693
5713 5710 5708 5705 5703 5701 5698 5696 5695 5693 5691 5690 5689 5688 5686 5685 5684 5683 5682 5681 5680 5680 5679 5678 5678 5679 5680 5680 5682 5683 5683 5684 5686 5688 5688 5688 5688 5685 5685 5685 5686 5687 5687
5711 5708 5706 5703 5701 5700 5698 5696 5694 5692 5690 5689 5687 5686 5685 5684 5682 5681 5680 5679 5678 5677 5676 5675 5675 5675 5676 5676 5677 5678 5679 5680 5682 5683 5683 5683 5682 5681 5681 5681 5681 5682 5682
5707 5704 5703 5701 5700 5698 5696 5695 5693 5691 5689 5687 5686 5684 5683 5682 5681 5679 5678 5677 5675 5674 5673 5672 5671 5671 5672 5672 5672 5673 5674 5675 5676 5677 5677 5677 5675 5676 5676 5676 5676 5676 5677
5701 5700 5700 5699 5698 5697 5695 5694 5692 5690 5688 5686 5684 5683 5681 5680 5679 5677 5676 5674 5673 5671 5670 5668 5667 5667 5667 5667 5667 5668 5668 5669 5672 5671 5671 5671 5669 5671 5671 5671 5671 5672 5672
5696 5695 5695 5696 5696 5696 5695 5693 5691 5689 5687 5685 5683 5681 5680 5678 5677 5675 5673 5672 5670 5668 5666 5664 5663 5662 5661 5661 5661 5662 5662 5663 5664 5664 5665 5664 5664 5665 5666 5666 5666 5666 5667
5692 5691 5691 5691 5693 5693 5693 5692 5690 5688 5686 5684 5682 5680 5678 5677 5676 5673 5671 5669 5667 5665 5663 5661 5659 5658 5657 5656 5656 5656 5656 5656 5656 5657 5656 5655 5657 5658 5660 5660 5661 5661 5662
5688 5687 5686 5687 5689 5690 5691 5690 5689 5687 5685 5683 5681 5679 5677 5675 5673 5670 5667 5665 5663 5661 5659 5657 5656 5654 5652 5652 5651 5650 5650 5649 5649 5649 5649 5648 5649 5651 5653 5654 5654 5655 5656
5680 5682 5682 5684 5685 5687 5688 5688 5686 5685 5682 5680 5679 5677 5675 5673 5670 5667 5664 5661 5659 5657 5655 5653 5651 5650 5648 5646 5645 5644 5643 5643 5642 5642 5642 5641 5642 5643 5645 5646 5648 5649 5649
5673 5675 5677 5679 5682 5683 5684 5684 5682 5680 5678 5676 5674 5672 5671 5669 5666 5664 5661 5657 5655 5652 5650 5648 5646 5644 5643 5640 5639 5638 5637 5636 5635 5635 5635 5634 5635 5635 5637 5638 5640 5642 5642
5666 5668 5670 5674 5678 5679 5679 5678 5676 5674 5671 5669 5667 5665 5664 5663 5661 5658 5655 5651 5649 5646 5643 5642 5640 5638 5636 5634 5632 5631 5630 5629 5628 5627 5628 5627 5627 5628 5628 5630 5632 5634 5635
5657 5659 5663 5668 5671 5673 5672 5670 5667 5665 5662 5659 5656 5655 5655 5654 5652 5650 5646 5642 5639 5637 5634 5632 5630 5629 5627 5625 5624 5622 5621 5621 5620 5619 5620 5620 5620 5619 5620 5621 5622 5624 5626
5648 5650 5654 5658 5662 5663 5661 5658 5655 5652 5650 5647 5644 5643 5643 5642 5641 5638 5635 5631 5629 5626 5624 5622 5620 5618 5617 5615 5615 5613 5612 5612 5611 5611 5611 5611 5611 5611 5611 5611 5612 5613 5615
5640 5642 5645 5648 5650 5650 5648 5645 5642 5639 5636 5633 5631 5630 5629 5629 5627 5625 5622 5619 5616 5614 5612 5610 5609 5607 5606 5605 5605 5604 5603 5603 5602 5602 5602 5601 5601 5601 5601 5601 5601 5602 5604
5631 5633 5635 5637 5638 5637 5635 5632 5629 5625 5622 5619 5617 5616 5614 5614 5613 5611 5608 5604 5603 5601 5599 5597 5595 5594 5594 5594 5594 5594 5594 5594 5593 5592 5591 5590 5589 5589 5589 5590 5590 5591 5593
5623 5625 5626 5626 5627 5626 5624 5621 5616 5612 5607 5604 5601 5599 5599 5598 5596 5595 5593 5589 5588 5586 5584 5582 5581 5579 5578 5579 5581 5583 5584 5583 5581 5580 5579 5578 5577 5576 5576 5577 5578 5580 5581
5613 5615 5616 5616 5616 5616 5614 5611 5606 5598 5592 5588 5584 5582 5581 5580 5579 5577 5575 5572 5570 5568 5566 5565 5565 5564 5563 5563 5568 5572 5573 5570 5568 5565 5564 5563 5563 5562 5562 5563 5564 5566 5569
5603 5603 5604 5604 5604 5603 5601 5597 5591 5584 5577 5572 5568 5565 5563 5562 5560 5558 5555 5552 5550 5548 5546 5545 5545 5545 5544 5543 5546 5553 5558 5560 5554 5550 5548 5546 5546 5546 5547 5548 5549 5551 5553
5591 5591 5591 5591 5591 5589 5587 5583 5577 5572 5565 5558 5553 5549 5545 5543 5541 5538 5536 5533 5529 5527 5524 5522 5522 5522 5522 5521 5519 5521 5527 5532 5531 5535 5531 5528 5528 5528 5529 5530 5532 5535 5538
5579 5578 5578 5577 5576 5574 5572 5570 5568 5562 5552 5542 5536 5531 5527 5524 5522 5519 5516 5513 5509 5505 5502 5500 5498 5497 5497 5496 5495 5493 5492 5493 5499 5511 5515 5512 5509 5508 5509 5511 5515 5518 5521
5566 5565 5565 5563 5561 5558 5556 5553 5549 5542 5533 5526 5519 5514 5510 5506 5502 5498 5495 5491 5487 5483 5480 5477 5475 5474 5473 5471 5470 5469 5469 5470 5471 5475 5488 5492 5492 5491 5491 5492 5496 5500 5503
5554 5552 5551 5549 5545 5542 5540 5536 5532 5526 5518 5511 5505 5499 5493 5487 5482 5478 5474 5470 5466 5462 5458 5455 5452 5450 5448 5446 5445 5444 5444 5445 5445 5447 5454 5462 5469 5473 5474 5475 5477 5480 5484